User: anonymous
Location: Caltech
(34.1382°N, 118.1253°W)
Time: 00:33:48
(UTC-07:00)
Language:

KITSAT 1 - Orbit

View from above orbital plane
View from above orbital plane
View from above satellite
View from above satellite

Ground track
Ground track

The orbit data is extracted from the following two-line orbital elements,

1 22077U 92052B   14243.36744469 -.00000037  00000-0  10084-3 0  6997
2 22077 066.0854 304.7915 0005384 200.8426 233.1825 12.86494229 36077
Epoch (UTC): 31 August 2014 08:49:07
Eccentricity: 0.0005384
inclination: 66.0854°
perigee height: 1311 km
apogee height: 1319 km
right ascension of ascending node: 304.7915°
argument of perigee: 200.8426°
revolutions per day: 12.86494229
mean anomaly at epoch: 233.1825°
orbit number at epoch: 3607

The dashed part of the orbit path shows where the satellite is in the earth's shadow,  

DLR